FW0152 North Kingstown RI US current weather conditions

sailwx.info

Wind from 196

Air temperature 23.9° C
Dewpoint -12.4° C

Last reported at 2019-Aug-23 21:59 UTC.
Time now 2019-Aug-23 22:41 UTC

Location: N 41°38' W 071°26'.
View on Google Maps.

See reports from other nearby stations

  
Tides and Currents Weather Stations Pressure Air Temp Water Temp Dewpoint Dewpoint Depression Visibility Wind Speed Wind Dir Waves Ship Positions
date/time (UTC)wind fromknots sea level pressurealtimeterstation pressurevisibilityair tempwater tempwave heightnotes
2019-Aug-23 21:59 196 23.9
2019-Aug-23 21:39 180 24.4
2019-Aug-23 21:24 164 24.4
2019-Aug-23 20:56 199 24.4
2019-Aug-23 20:42 177 24.4
2019-Aug-23 20:35 185 24.4
2019-Aug-23 20:28 220 3 gusting 4 24.4
2019-Aug-23 20:21 229 23.9
2019-Aug-23 20:07 165 24.4
2019-Aug-23 20:00 281 25.0
2019-Aug-23 19:46 169 25.6
2019-Aug-23 19:18 207 25.6
2019-Aug-23 19:04 149 25.0
2019-Aug-23 18:57 173 25.0
2019-Aug-23 18:43 218 25.0
2019-Aug-23 18:36 196 2 gusting 4 24.4
2019-Aug-23 18:29 202 2 gusting 4 24.4
2019-Aug-23 18:15 223 2 gusting 4 23.9
2019-Aug-23 18:01 185 22.8
2019-Aug-23 17:54 322 22.8
2019-Aug-23 17:47 201 22.8
2019-Aug-23 17:40 178 22.8
2019-Aug-23 17:33 197 22.8
2019-Aug-23 17:26 201 22.8
2019-Aug-23 17:19 185 22.8
2019-Aug-23 17:05 283 22.2
2019-Aug-23 16:58 265 22.2
2019-Aug-23 16:51 195 21.7
2019-Aug-23 16:37 203 21.7
2019-Aug-23 16:30 183 21.1
2019-Aug-23 16:23 264 21.1
2019-Aug-23 16:16 180 21.1
2019-Aug-23 15:55 207 20.6
2019-Aug-23 15:34 180 20.6
2019-Aug-23 15:13 160 20.0
2019-Aug-23 15:06 178 20.0
2019-Aug-23 14:59 186 20.0
2019-Aug-23 14:45 309 19.4
2019-Aug-23 14:38 172 18.9
2019-Aug-23 14:10 194 18.3
2019-Aug-23 14:03 209 17.8
2019-Aug-23 13:56 178 17.8
2019-Aug-23 13:49 175 17.8
2019-Aug-23 13:28 182 17.8
2019-Aug-23 13:21 189 17.8
2019-Aug-23 13:14 216 17.8
2019-Aug-23 13:07 177 17.8
2019-Aug-23 13:00 183 18.3
2019-Aug-23 12:46 199 18.9
2019-Aug-23 12:39 181 18.9
2019-Aug-23 12:32 080 19.4
2019-Aug-23 12:25 185 19.4
2019-Aug-23 12:18 197 19.4
2019-Aug-23 12:11 184 20.0
2019-Aug-23 11:43 231 20.6
2019-Aug-23 11:22 172 21.1
2019-Aug-23 11:15 196 21.1
2019-Aug-23 11:01 174 21.1
2019-Aug-23 10:54 124 21.1
2019-Aug-23 10:47 351 2 gusting 4 21.1
2019-Aug-23 10:41 181 21.1
2019-Aug-23 00:03 183 25.6
2019-Aug-22 23:56 177 26.1
2019-Aug-22 23:49 195 26.1
2019-Aug-22 23:42 203 26.1
2019-Aug-22 23:35 183 26.7
2019-Aug-22 23:28 196 26.7
2019-Aug-22 23:07 170 27.2
2019-Aug-22 22:46 182 28.9
2019-Aug-22 22:25 190 29.4
2019-Aug-22 22:18 192 29.4
2019-Aug-22 22:11 194 29.4
2019-Aug-22 21:50 180 30.0
2019-Aug-22 21:36 181 30.6
2019-Aug-22 21:29 181 30.6
2019-Aug-22 21:22 179 30.6
2019-Aug-22 21:15 192 30.6
2019-Aug-22 21:08 189 30.6
2019-Aug-22 21:01 175 30.6
2019-Aug-22 20:54 162 30.6
2019-Aug-22 20:47 190 30.6
2019-Aug-22 20:40 210 31.1
2019-Aug-22 20:19 244 31.7
2019-Aug-22 20:05 174 31.1
2019-Aug-22 19:58 208 31.1
2019-Aug-22 19:51 162 30.6
2019-Aug-22 19:44 197 30.0
2019-Aug-22 19:16 164 27.2
2019-Aug-22 19:09 175 26.7
2019-Aug-22 19:02 194 26.7
2019-Aug-22 18:55 149 26.7
2019-Aug-22 18:34 181 29.4
2019-Aug-22 18:27 167 30.0
2019-Aug-22 18:20 280 2 gusting 4 30.6
2019-Aug-22 18:13 134 1 gusting 2 30.6
2019-Aug-22 17:52 172 30.0
2019-Aug-22 17:31 182 27.8
2019-Aug-22 17:24 190 27.8
2019-Aug-22 17:03 134 0 gusting 2 28.3
2019-Aug-22 16:56 134 28.9
2019-Aug-22 16:49 180 28.9
2019-Aug-22 16:42 151 29.4
2019-Aug-22 16:28 058 2 gusting 4 30.0
2019-Aug-22 16:21 040 2 gusting 4 30.6
2019-Aug-22 16:14 097 0 gusting 2 30.0
2019-Aug-22 16:07 189 30.0
2019-Aug-22 16:00 101 30.0
2019-Aug-22 15:25 150 31.7
2019-Aug-22 15:18 173 31.1
2019-Aug-22 15:11 133 1 gusting 2 31.1
2019-Aug-22 15:04 160 30.6
2019-Aug-22 14:50 181 30.0
2019-Aug-22 14:15 151 2 gusting 2 27.2
2019-Aug-22 14:01 176 26.7
2019-Aug-22 13:54 184 26.1
2019-Aug-22 13:40 146 26.1
2019-Aug-22 13:33 172 26.1
2019-Aug-22 13:26 184 26.1
2019-Aug-22 13:12 191 25.6
2019-Aug-22 13:05 222 25.6
2019-Aug-22 12:51 181 25.6
2019-Aug-22 12:44 144 25.0
2019-Aug-22 12:29 164 25.0
2019-Aug-22 12:09 226 24.4
2019-Aug-22 12:01 161 24.4
2019-Aug-22 11:53 165 23.9